• Join FlightAware (Why Join?)
  • Login
  • US Flag GB Flag 
06:52 EDT


 

Airport Tracker/Info


-or-


 

Live Flight TrackerFlight Track Log ✈ EJA922 ✈ 20-Oct-2013 ✈ KVNY - KTEB

Flight Track Log - Related Links

Times and Time Zones

All times are in EDT time to prevent confusion due to time zone crossing. See the EJA922 flight status page for this flight to view local times or setup timezone preferences in your user account.

Time Position Orientation Groundspeed Altitude Reporting Facility
EDT Latitude Longitude Course Direction KTS MPH feet Rate Location/Type
15:22 34.1772 -118.4867 101° East 183 211 39,000  Level Los Angeles Center
15:23 34.1694 -118.4375 101° East 213 245 3,300 -15,840 Descending Los Angeles Center
15:24 34.2322 -118.4639 341° North 230 265 6,000 2,160 Climbing Los Angeles Center
15:25 34.3042 -118.4908 343° North 259 298 7,900 2,100 Climbing Los Angeles Center
15:26 34.3867 -118.4997 355° North 289 333 10,400 2,880 Climbing Los Angeles Center
15:27 34.4556 -118.4719 18° North 273 314 13,900 2,460 Climbing Los Angeles Center
15:28 34.4958 -118.3817 62° Northeast 301 346 15,600 1,260 Climbing Los Angeles Center
15:29 34.5428 -118.2728 62° Northeast 360 414 16,600 1,260 Climbing Los Angeles Center
15:30 34.5989 -118.1411 63° Northeast 396 456 18,300 1,620 Climbing Los Angeles Center
15:31 34.6375 -118.0142 70° East 400 460 20,000 1,500 Climbing Los Angeles Center
15:32 34.6822 -117.8883 67° East 414 476 21,500 1,560 Climbing Los Angeles Center
15:33 34.7578 -117.7461 57° Northeast 419 482 23,300 1,560 Climbing Los Angeles Center
15:34 34.8222 -117.6242 57° Northeast 430 495 24,800 1,440 Climbing Los Angeles Center
15:35 34.8867 -117.4997 58° Northeast 439 505 26,300 1,380 Climbing Los Angeles Center
15:36 34.9539 -117.3731 57° Northeast 451 519 27,700 1,500 Climbing Los Angeles Center
15:37 35.0350 -117.2183 57° Northeast 457 526 29,400 1,440 Climbing Los Angeles Center
15:38 35.1039 -117.0850 58° Northeast 465 535 30,700 1,260 Climbing Los Angeles Center
15:39 35.1747 -116.9506 57° Northeast 471 542 32,100 1,620 Climbing Los Angeles Center
15:40 35.2447 -116.8158 58° Northeast 473 544 34,100 1,740 Climbing Los Angeles Center
15:41 35.3122 -116.6836 58° Northeast 464 534 35,700 1,200 Climbing Los Angeles Center
15:42 35.3819 -116.5492 58° Northeast 470 541 36,600 960 Climbing Los Angeles Center
15:43 35.4664 -116.3833 58° Northeast 480 552 37,800 1,020 Climbing Los Angeles Center
15:44 35.5367 -116.2444 58° Northeast 483 556 38,800 960 Climbing Los Angeles Center
15:45 35.6003 -116.0992 62° Northeast 484 557 39,800 780 Climbing Los Angeles Center
15:46 35.6608 -115.9558 62° Northeast 478 550 40,500 540 Climbing Los Angeles Center
15:48 35.7194 -115.8003 65° Northeast 480 552 41,000 240 Climbing Los Angeles Center
15:49 35.7761 -115.6494 65° Northeast 489 563 41,000  Level Los Angeles Center
15:50 35.8458 -115.4672 65° Northeast 496 571 41,000  Level Los Angeles Center
15:51 35.9033 -115.3156 65° Northeast 496 571 41,000  Level Los Angeles Center
15:52 35.9603 -115.1636 65° Northeast 491 565 41,000  Level Los Angeles Center
15:53 36.0181 -115.0075 65° Northeast 501 577 41,000  Level Los Angeles Center
15:54 36.0750 -114.8550 65° Northeast 496 571 41,000  Level Los Angeles Center
15:55 36.1433 -114.6694 65° Northeast 496 571 41,000  Level Los Angeles Center
15:56 36.2003 -114.5153 65° Northeast 496 571 41,000  Level Los Angeles Center
15:57 36.2572 -114.3600 66° East 496 571 41,000  Level Los Angeles Center
15:58 36.3142 -114.2050 65° Northeast 495 570 41,000  Level Los Angeles Center
15:59 36.3711 -114.0503 65° Northeast 495 570 41,000  Level Los Angeles Center
16:00 36.4375 -113.8656 66° East 491 565 41,000  Level Los Angeles Center
16:01 36.4931 -113.7114 66° East 491 565 41,000  Level Los Angeles Center
16:02 36.5503 -113.5486 66° East 491 565 41,000  Level Los Angeles Center
16:03 36.6056 -113.3947 66° East 490 564 41,000  Level Los Angeles Center
16:04 36.6606 -113.2397 66° East 493 567 41,000  Level Los Angeles Center
16:05 36.7167 -113.0825 66° East 497 572 41,000  Level Los Angeles Center
16:06 36.7722 -112.9244 66° East 501 577 41,000  Level Los Angeles Center
16:07 36.8381 -112.7358 66° East 498 573 41,000  Level Los Angeles Center
16:08 36.8931 -112.5781 66° East 499 574 41,000  Level Los Angeles Center
16:09 36.9478 -112.4194 67° East 501 577 41,000  Level Los Angeles Center
16:10 37.0017 -112.2614 67° East 499 574 41,000  Level Los Angeles Center
16:11 37.0564 -112.1028 67° East 500 575 41,000  Level Los Angeles Center
16:12 37.1208 -111.9125 67° East 499 574 41,000  Level Los Angeles Center
16:13 37.1742 -111.7542 67° East 497 572 41,000  Level Los Angeles Center
16:14 37.2275 -111.5953 67° East 497 572 41,000  Level Los Angeles Center
16:15 37.2822 -111.4339 67° East 502 578 41,000  Level Los Angeles Center
16:16 37.3364 -111.2711 67° East 505 581 41,000  Level Los Angeles Center
16:18 37.4092 -111.0436 68° East 502 578 41,000  Level Denver Center
16:19 37.4628 -110.8806 67° East 505 581 41,000  Level Denver Center
16:20 37.5269 -110.6853 67° East 504 580 41,000  Level Denver Center
16:21 37.5783 -110.5244 68° East 505 581 41,000  Level Denver Center
16:22 37.6297 -110.3669 68° East 506 582 41,000  Level Denver Center
16:23 37.6881 -110.1811 68° East 508 585 41,000  Level Denver Center
16:24 37.7389 -110.0228 68° East 507 583 41,000  Level Denver Center
16:25 37.7972 -109.8383 68° East 505 581 41,000  Level Denver Center
16:26 37.8461 -109.6786 69° East 507 583 41,000  Level Denver Center
16:27 37.9050 -109.4947 68° East 506 582 41,000  Level Denver Center
16:28 37.9544 -109.3319 69° East 514 592 41,000  Level Denver Center
16:29 38.0117 -109.1453 69° East 510 587 41,000  Level Denver Center
16:30 38.0583 -108.9933 69° East 512 589 41,000  Level Denver Center
16:31 38.1147 -108.8014 69° East 518 596 41,000  Level Denver Center
16:32 38.1650 -108.6400 68° East 516 594 41,000  Level Denver Center
16:33 38.2208 -108.4508 69° East 514 592 41,000  Level Denver Center
16:34 38.2700 -108.2878 69° East 515 593 41,000  Level Denver Center
16:35 38.3264 -108.0978 69° East 514 592 41,000  Level Denver Center
16:36 38.3750 -107.9358 69° East 513 590 41,000  Level Denver Center
16:38 38.4311 -107.7442 69° East 517 595 41,000  Level Denver Center
16:39 38.4789 -107.5797 70° East 518 596 41,000  Level Denver Center
16:40 38.5353 -107.3853 70° East 523 602 41,000  Level Denver Center
16:41 38.5833 -107.2197 70° East 521 600 41,000  Level Denver Center
16:42 38.6381 -107.0253 70° East 521 600 41,000  Level Denver Center
16:43 38.6881 -106.8506 70° East 525 604 41,000  Level Denver Center
16:44 38.7358 -106.6772 70° East 522 601 41,000  Level Denver Center
16:45 38.7844 -106.5011 70° East 526 605 41,000  Level Denver Center
16:46 38.8331 -106.3247 70° East 527 606 41,000  Level Denver Center
16:47 38.8847 -106.1392 70° East 532 612 41,000  Level Denver Center
16:48 38.9422 -105.9256 71° East 529 609 41,000  Level Denver Center
16:49 38.9906 -105.7478 71° East 530 610 41,000  Level Denver Center
16:50 39.0383 -105.5686 71° East 531 611 41,000  Level Denver Center
16:51 39.0867 -105.3919 71° East 529 609 41,000  Level Denver Center
16:52 39.1347 -105.2119 71° East 532 612 41,000  Level Denver Center
16:53 39.1825 -105.0339 71° East 531 611 41,000  Level Denver Center
16:54 39.2375 -104.8214 71° East 525 604 41,000  Level Denver Center
16:55 39.2839 -104.6419 71° East 531 611 41,000  Level Denver Center
16:56 39.3289 -104.4636 72° East 532 612 41,000  Level Denver Center
16:57 39.3750 -104.2847 72° East 533 613 41,000  Level Denver Center
16:58 39.4300 -104.0658 72° East 537 618 41,000  Level Denver Center
16:59 39.4761 -103.8836 72° East 537 618 41,000  Level Denver Center
17:00 39.5222 -103.7011 72° East 535 616 41,000  Level Denver Center
17:01 39.5678 -103.5186 72° East 534 615 41,000  Level Denver Center
17:02 39.6125 -103.3339 73° East 538 619 41,000  Level Denver Center
17:03 39.6661 -103.1142 72° East 536 617 41,000  Level Denver Center
17:04 39.7111 -102.9300 72° East 537 618 41,000  Level Denver Center
17:05 39.7561 -102.7458 72° East 536 617 41,000  Level Denver Center
17:06 39.7983 -102.5672 73° East 539 620 41,000  Level Denver Center
17:08 39.8464 -102.3600 73° East 539 620 41,000  Level Denver Center
17:09 39.8886 -102.1808 73° East 540 621 41,000  Level Denver Center
17:10 39.9375 -101.9725 73° East 540 621 41,000  Level Denver Center
17:11 39.9781 -101.7908 74° East 544 626 41,000  Level Denver Center
17:12 40.0264 -101.5825 73° East 542 624 41,000  Level Denver Center
17:13 40.0667 -101.4011 74° East 544 626 41,000  Level Denver Center
17:14 40.1142 -101.1889 74° East 548 631 41,000  Level Denver Center
17:15 40.1542 -101.0078 74° East 547 629 41,000  Level Denver Center
17:16 40.2008 -100.7944 74° East 548 631 41,000  Level Denver Center
17:17 40.2414 -100.6133 74° East 547 629 41,000  Level Denver Center
17:18 40.2878 -100.4000 74° East 549 632 41,000  Level Denver Center
17:19 40.3269 -100.2158 74° East 551 634 41,000  Level Denver Center
17:20 40.3725 -100.0006 74° East 552 635 41,000  Level Denver Center
17:21 40.4161 -99.7903 75° East 552 635 41,000  Level Denver Center
17:22 40.4578 -99.5964 74° East 553 636 41,000  Level Denver Center
17:23 40.4969 -99.4011 75° East 555 639 41,000  Level Denver Center
17:24 40.5369 -99.2067 75° East 554 638 41,000  Level Denver Center
17:25 40.5767 -99.0103 75° East 557 641 41,000  Level Denver Center
17:26 40.6233 -98.7753 75° East 557 641 41,000  Level Denver Center
17:27 40.6625 -98.5786 75° East 559 643 41,000  Level Denver Center
17:29 40.7161 -98.3017 76° East 562 647 41,000  Level Minneapolis Center
17:30 40.7544 -98.1022 76° East 563 648 41,000  Level Minneapolis Center
17:31 40.8003 -97.8633 76° East 563 648 41,000  Level Minneapolis Center
17:32 40.8386 -97.6622 76° East 566 651 41,000  Level Minneapolis Center
17:33 40.8750 -97.4603 77° East 567 652 41,000  Level Minneapolis Center
17:34 40.9156 -97.2478 76° East 566 651 41,000  Level Minneapolis Center
17:35 40.9517 -97.0467 77° East 565 650 41,000  Level Minneapolis Center
17:36 40.9883 -96.8447 76° East 565 650 41,000  Level Minneapolis Center
17:37 41.0261 -96.6419 76° East 568 654 41,000  Level Minneapolis Center
17:38 41.0619 -96.4394 77° East 568 654 41,000  Level Minneapolis Center
17:39 41.0975 -96.2375 77° East 568 654 41,000  Level Minneapolis Center
17:40 41.1383 -95.9986 77° East 570 656 41,000  Level Minneapolis Center
17:41 41.1744 -95.7911 77° East 575 662 41,000  Level Minneapolis Center
17:42 41.2061 -95.5894 78° East 571 657 41,000  Level Minneapolis Center
17:43 41.2406 -95.3833 77° East 575 662 41,000  Level Minneapolis Center
17:44 41.2828 -95.1353 77° East 577 664 41,000  Level Minneapolis Center
17:45 41.3150 -94.9281 78° East 574 661 41,000  Level Minneapolis Center
17:46 41.3478 -94.7206 78° East 574 661 41,000  Level Minneapolis Center
17:47 41.3825 -94.5119 77° East 576 663 41,000  Level Minneapolis Center
17:48 41.4164 -94.3033 78° East 578 665 41,000  Level Minneapolis Center
17:49 41.4489 -94.0778 79° East 574 661 41,000  Level Minneapolis Center
17:50 41.4811 -93.8697 78° East 575 662 41,000  Level Minneapolis Center
17:51 41.5131 -93.6592 78° East 580 667 41,000  Level Minneapolis Center
17:52 41.5467 -93.4461 78° East 585 673 41,000  Level Minneapolis Center
17:53 41.5775 -93.2322 79° East 590 679 41,000  Level Minneapolis Center
17:54 41.6147 -92.9792 79° East 585 673 41,000  Level Minneapolis Center
17:55 41.6442 -92.7694 79° East 581 669 41,000  Level Minneapolis Center
17:56 41.6747 -92.5561 79° East 583 671 41,000  Level Minneapolis Center
17:57 41.6925 -92.4253 80° East 587 676 41,000  Level Chicago Center
17:58 41.7225 -92.2128 79° East 588 677 41,000  Level Chicago Center
17:59 41.7508 -91.9972 80° East 592 681 41,000  Level Chicago Center
18:00 41.7800 -91.7853 79° East 590 679 41,000  Level Chicago Center
18:01 41.8086 -91.5711 80° East 592 681 41,000  Level Chicago Center
18:02 41.8408 -91.3147 80° East 592 681 41,000  Level Chicago Center
18:03 41.8681 -91.1031 80° East 586 674 41,000  Level Chicago Center
18:04 41.8958 -90.8878 80° East 592 681 41,000  Level Chicago Center
18:05 41.9217 -90.6739 81° East 590 679 41,000  Level Chicago Center
18:06 41.9522 -90.4172 81° East 588 677 41,000  Level Chicago Center
18:07 41.9786 -90.2011 81° East 590 679 41,000  Level Chicago Center
18:08 42.0050 -89.9844 81° East 593 682 41,000  Level Chicago Center
18:09 42.0283 -89.7678 82° East 588 677 41,000  Level Chicago Center
18:10 42.0525 -89.5503 81° East 589 678 41,000  Level Chicago Center
18:12 42.0808 -89.2997 81° East 593 682 41,000  Level Chicago Center
18:13 42.1053 -89.0786 81° East 599 689 41,000  Level Chicago Center
18:14 42.1281 -88.8597 82° East 595 685 41,000  Level Chicago Center
18:15 42.1367 -88.6225 87° East 596 686 41,000  Level Chicago Center
18:16 42.1411 -88.3981 88° East 599 689 41,000  Level Chicago Center
18:17 42.1447 -88.1739 89° East 597 687 41,000  Level Chicago Center
18:18 42.1494 -87.9061 89° East 595 685 41,000  Level Chicago Center
18:19 42.1531 -87.6836 89° East 595 685 41,000  Level Chicago Center
18:20 42.1561 -87.4631 89° East 591 680 41,000  Level Chicago Center
18:21 42.1589 -87.2419 89° East 590 679 41,000  Level Chicago Center
18:22 42.1594 -87.0219 90° East 589 678 41,000  Level Chicago Center
18:23 42.1600 -86.8014 90° East 591 680 41,000  Level Chicago Center
18:24 42.1639 -86.5475 89° East 591 680 41,000  Level Chicago Center
18:25 42.1631 -86.3264 90° East 590 679 41,000  Level Chicago Center
18:26 42.1639 -86.1067 90° East 587 676 41,000  Level Chicago Center
18:27 42.1631 -85.8764 90° East 585 673 41,000  Level Chicago Center
18:28 42.1614 -85.6572 91° East 589 678 41,000  Level Chicago Center
18:29 42.1603 -85.4392 90° East 588 677 41,000  Level Chicago Center
18:30 42.1592 -85.1747 90° East 590 679 41,000  Level Chicago Center
18:31 42.1586 -84.9517 90° East 596 686 41,000  Level Chicago Center
18:32 42.1558 -84.7344 91° East 589 678 41,000  Level Chicago Center
18:33 42.1536 -84.5158 91° East 586 674 41,000  Level Chicago Center
18:34 42.1506 -84.2978 91° East 586 674 41,000  Level Chicago Center
18:35 42.1469 -84.0786 91° East 588 677 41,000  Level Chicago Center
18:36 42.1417 -83.8136 91° East 593 682 41,000  Level Chicago Center
18:38 42.1342 -83.5278 92° East 591 680 41,000  Level Cleveland Center
18:39 42.1269 -83.3039 92° East 594 684 41,000  Level Cleveland Center
18:40 42.1225 -83.0892 92° East 596 686 41,000  Level Cleveland Center
18:41 42.1147 -82.8206 92° East 600 690 41,000  Level Cleveland Center
18:42 42.1078 -82.6000 92° East 595 685 41,000  Level Cleveland Center
18:43 42.1025 -82.3792 92° East 594 684 41,000  Level Cleveland Center
18:44 42.0933 -82.1606 93° East 589 678 41,000  Level Cleveland Center
18:45 42.0842 -81.9203 93° East 589 678 41,000  Level Cleveland Center
18:46 42.0764 -81.6969 93° East 588 677 41,000  Level Cleveland Center
18:47 42.0669 -81.4739 93° East 589 678 41,000  Level Cleveland Center
18:48 42.0589 -81.2506 93° East 590 679 41,000  Level Cleveland Center
18:49 42.0486 -81.0269 93° East 590 679 41,000  Level Cleveland Center
18:50 42.0386 -80.8031 93° East 593 682 41,000  Level Cleveland Center
18:51 42.0261 -80.5414 94° East 595 685 41,000  Level Cleveland Center
18:52 42.0169 -80.3200 93° East 591 680 41,000  Level Cleveland Center
18:53 42.0056 -80.0997 94° East 586 674 41,000  Level Cleveland Center
18:54 41.9925 -79.8794 94° East 586 674 41,000  Level Cleveland Center
18:55 41.9806 -79.6631 94° East 583 671 41,000  Level Cleveland Center
18:56 41.9694 -79.4453 94° East 587 676 41,000  Level Cleveland Center
18:57 41.9561 -79.2300 95° East 582 670 41,000  Level Cleveland Center
18:58 41.9394 -78.9700 95° East 584 672 41,000 -540 Level Cleveland Center
18:59 41.9258 -78.7544 95° East 581 669 39,900 -1,200 Descending Cleveland Center
19:00 41.9117 -78.5356 95° East 587 676 38,600 -1,260 Descending Cleveland Center
19:01 41.8972 -78.3247 95° East 574 661 37,300 -1,440 Descending Cleveland Center
19:03 41.8831 -78.1119 95° East 571 657 35,600 -1,140 Descending Cleveland Center
19:04 41.8678 -77.8972 95° East 579 666 35,000 -360 Descending Cleveland Center
19:04 41.8375 -77.7450 105° East 588 677 35,000  Level New York Center
19:05 41.7806 -77.5386 110° East 588 677 35,000 -60 Level New York Center
19:06 41.7258 -77.3272 109° East 593 682 34,900 -720 Descending New York Center
19:07 41.6703 -77.1219 110° East 593 682 33,600 -1,320 Descending New York Center
19:08 41.6142 -76.9194 110° East 593 682 32,300 -4,800 Descending New York Center
19:09 41.5636 -76.7292 109° East 567 652 24,000 -4,200 Descending New York Center
19:10 41.5103 -76.5442 111° Southeast 548 631 24,000 2,100 Level New York Center
19:11 41.4589 -76.3517 110° East 527 606 28,300 780 Climbing New York Center
19:12 41.4108 -76.1789 110° East 498 573 25,600 -2,700 Descending New York Center
19:13 41.3642 -76.0119 110° East 492 566 23,000 -2,100 Descending New York Center
19:14 41.3169 -75.8481 111° Southeast 471 542 21,500 -2,460 Descending New York Center
19:15 41.2756 -75.6986 110° East 454 522 18,100 -2,880 Descending New York Center
19:16 41.2292 -75.5600 114° Southeast 433 498 15,800 -2,220 Descending New York Center
19:17 41.1844 -75.4244 114° Southeast 419 482 13,700 -2,100 Descending New York Center
19:18 41.1472 -75.3117 114° Southeast 380 437 11,600 -2,160 Descending New York Center
19:19 41.1061 -75.1878 114° Southeast 355 409 9,400 -1,920 Descending New York Center
19:20 41.0703 -75.0864 115° Southeast 320 368 7,800 -1,620 Descending New York Center
19:21 41.0594 -74.9811 98° East 296 341 6,200 -900 Descending New York Center
19:22 41.0569 -74.8764 92° East 285 328 6,000 -480 Descending New York Center
19:23 41.0539 -74.7828 92° East 285 328 5,300 -960 Descending New York Center
19:24 41.0514 -74.6697 92° East 279 321 4,100 -1,020 Descending New York Center
19:25 41.0481 -74.5789 93° East 272 313 3,300 -600 Descending New York Center
19:26 41.0411 -74.4683 95° East 273 314 3,000 -180 Descending New York Center
19:27 41.0381 -74.3692 92° East 273 314 3,000  Level New York Center
19:28 41.0333 -74.3000 95° East 270 311 3,000 -480 Level New York TRACON
19:29 41.0333 -74.2000 90° East 268 308 2,300 -480 Descending New York TRACON
19:30 41.0333 -74.1167 90° East 235 270 2,000 -180 Descending New York TRACON
19:31 41.0000 -74.0667 131° Southeast 204 235 2,000  Level New York TRACON
19:32 40.9500 -74.0500 166° South 189 217 2,000 -540 Level New York TRACON
19:33 40.9000 -74.0500 180° South 138 159 1,000 -900 Descending New York TRACON
19:34 40.8667 -74.0500 180° South 127 146 300 -660 Descending New York TRACON
19:36 40.8500 -74.0500 171° South  Level FlightAware Approximate
19:43 40.8501 -74.0608 171° South  Level Estimated
19:44 40.8501 -74.0608 171° South  Level Estimated